Location: Wells
(51.2093°N, 2.6446°W)
Time: 22:22:12
(UTC+00:00)

Oscar 19 - Visible Passes

Search period start: 14 March 2026 00:00
Search period end: 24 March 2026 00:00
Orbit: 769 x 787 km, 98.9° (Epoch: 14 March)

Date Brightness Start Highest point End Pass type
(mag) Time Alt. Az. Time Alt. Az. Time Alt. Az.
14 Mar 12.6 18:58:19 10° SSW 19:02:58 34° W 19:07:37 10° NNW visible
16 Mar 13.5 19:32:55 10° SW 19:36:29 19° W 19:40:04 10° NW visible
17 Mar 12.6 18:58:30 10° SSW 19:03:08 34° W 19:07:47 10° NNW visible
19 Mar 13.5 19:33:04 10° SW 19:36:39 19° W 19:40:15 10° NW visible
20 Mar 12.6 18:58:39 10° SSW 19:03:18 34° W 19:07:57 10° NNW visible
22 Mar 13.5 19:33:13 10° SW 19:36:49 19° W 19:40:25 10° NW visible
23 Mar 12.6 18:58:49 10° SSW 19:03:27 34° W 19:08:07 10° NNW visible
